Time,TemperatureF,DewpointF,PressureIn,WindDirection,WindDirectionDegrees,WindSpeedMPH,WindSpeedGustMPH,Humidity,HourlyPrecipIn,Conditions,Clouds,dailyrainin,SoftwareType,DateUTC
2013-09-25 00:01:00,59.5,56.9,29.75,NE,38,0.0,0.0,91,0.00,,,0.00,WeatherCatV1.21B27,2013-09-25 05:01:00,
2013-09-25 00:06:00,59.3,56.7,29.75,NE,38,0.0,0.0,91,0.00,,,0.00,WeatherCatV1.21B27,2013-09-25 05:06:00,
2013-09-25 00:11:00,59.2,56.6,29.75,NE,38,0.0,0.0,91,0.00,,,0.00,WeatherCatV1.21B27,2013-09-25 05:11:00,
2013-09-25 00:16:00,59.0,56.4,29.75,NE,38,0.0,0.0,91,0.00,,,0.00,WeatherCatV1.21B27,2013-09-25 05:16:00,
2013-09-25 00:21:00,58.9,56.6,29.75,NE,38,0.0,0.0,92,0.00,,,0.00,WeatherCatV1.21B27,2013-09-25 05:21:00,
2013-09-25 00:26:00,58.9,56.6,29.75,NE,38,0.0,0.0,92,0.00,,,0.00,WeatherCatV1.21B27,2013-09-25 05:26:00,
2013-09-25 00:31:00,58.7,56.4,29.76,NE,38,0.0,0.0,92,0.00,,,0.00,WeatherCatV1.21B27,2013-09-25 05:31:00,
2013-09-25 00:36:00,58.6,56.3,29.76,NE,38,0.0,0.0,92,0.00,,,0.00,WeatherCatV1.21B27,2013-09-25 05:36:00,
2013-09-25 00:41:00,58.6,56.6,29.76,NE,38,0.0,0.0,93,0.00,,,0.00,WeatherCatV1.21B27,2013-09-25 05:41:00,
2013-09-25 00:46:00,58.4,56.4,29.76,NE,38,0.0,0.0,93,0.00,,,0.00,WeatherCatV1.21B27,2013-09-25 05:46:00,
2013-09-25 00:51:00,58.3,56.3,29.76,NE,38,0.0,0.0,93,0.00,,,0.00,WeatherCatV1.21B27,2013-09-25 05:51:00,
2013-09-25 00:56:00,58.3,56.3,29.76,NE,38,0.0,0.0,93,0.00,,,0.00,WeatherCatV1.21B27,2013-09-25 05:56:00,
2013-09-25 01:01:00,58.1,56.1,29.75,NE,38,0.0,0.0,93,0.00,,,0.00,WeatherCatV1.21B27,2013-09-25 06:01:00,
2013-09-25 01:06:00,58.0,56.0,29.75,NE,38,0.0,0.0,93,0.00,,,0.00,WeatherCatV1.21B27,2013-09-25 06:06:00,
2013-09-25 01:11:00,58.0,56.0,29.75,NE,38,0.0,0.0,93,0.00,,,0.00,WeatherCatV1.21B27,2013-09-25 06:11:00,
2013-09-25 01:16:00,58.0,56.3,29.75,NE,38,0.0,0.0,94,0.00,,,0.00,WeatherCatV1.21B27,2013-09-25 06:16:00,
2013-09-25 01:21:00,58.0,56.3,29.75,NE,38,0.0,0.0,94,0.00,,,0.00,WeatherCatV1.21B27,2013-09-25 06:21:00,
2013-09-25 01:26:00,58.0,56.3,29.75,NE,38,0.0,0.0,94,0.00,,,0.00,WeatherCatV1.21B27,2013-09-25 06:26:00,
2013-09-25 01:31:00,58.0,56.3,29.76,NE,38,0.0,0.0,94,0.00,,,0.00,WeatherCatV1.21B27,2013-09-25 06:31:00,
2013-09-25 01:36:00,58.0,56.3,29.76,NE,38,0.0,0.0,94,0.00,,,0.00,WeatherCatV1.21B27,2013-09-25 06:36:00,
2013-09-25 01:41:00,57.8,56.1,29.76,NE,38,0.0,0.0,94,0.00,,,0.00,WeatherCatV1.21B27,2013-09-25 06:41:00,
2013-09-25 01:46:00,57.8,56.1,29.77,NE,38,0.0,0.0,94,0.00,,,0.00,WeatherCatV1.21B27,2013-09-25 06:46:00,
2013-09-25 01:51:00,57.6,55.9,29.77,NE,38,0.0,0.0,94,0.00,,,0.00,WeatherCatV1.21B27,2013-09-25 06:51:00,
2013-09-25 01:56:00,57.5,55.8,29.77,NE,38,0.0,0.0,94,0.00,,,0.00,WeatherCatV1.21B27,2013-09-25 06:56:00,
2013-09-25 02:01:00,57.5,56.1,29.76,NE,38,0.0,0.0,95,0.00,,,0.00,WeatherCatV1.21B27,2013-09-25 07:01:00,
2013-09-25 02:06:00,57.3,55.9,29.76,NE,38,0.0,0.0,95,0.00,,,0.00,WeatherCatV1.21B27,2013-09-25 07:06:00,
2013-09-25 02:11:00,57.2,55.8,29.76,NE,38,0.0,0.0,95,0.00,,,0.00,WeatherCatV1.21B27,2013-09-25 07:11:00,
2013-09-25 02:16:00,57.2,55.8,29.75,NE,38,0.0,0.0,95,0.00,,,0.00,WeatherCatV1.21B27,2013-09-25 07:16:00,
2013-09-25 02:21:00,57.0,55.6,29.75,NE,38,0.0,0.0,95,0.00,,,0.00,WeatherCatV1.21B27,2013-09-25 07:21:00,
2013-09-25 02:26:00,56.9,55.5,29.75,NE,38,0.0,0.0,95,0.00,,,0.00,WeatherCatV1.21B27,2013-09-25 07:26:00,
2013-09-25 02:31:00,56.9,55.5,29.75,NE,38,0.0,0.0,95,0.00,,,0.00,WeatherCatV1.21B27,2013-09-25 07:31:00,
2013-09-25 02:36:00,56.7,55.3,29.75,NE,38,0.0,0.0,95,0.00,,,0.00,WeatherCatV1.21B27,2013-09-25 07:36:00,
2013-09-25 02:41:00,56.7,55.3,29.75,NE,38,0.0,0.0,95,0.00,,,0.00,WeatherCatV1.21B27,2013-09-25 07:41:00,
2013-09-25 02:46:00,56.6,55.2,29.75,NE,38,0.0,0.0,95,0.00,,,0.00,WeatherCatV1.21B27,2013-09-25 07:46:00,
2013-09-25 02:51:00,56.6,55.5,29.75,NE,38,0.0,0.0,96,0.00,,,0.00,WeatherCatV1.21B27,2013-09-25 07:51:00,
2013-09-25 02:56:00,56.6,55.5,29.75,NE,38,0.0,0.0,96,0.00,,,0.00,WeatherCatV1.21B27,2013-09-25 07:56:00,
2013-09-25 03:01:00,56.7,55.6,29.75,NE,38,0.0,0.0,96,0.00,,,0.00,WeatherCatV1.21B27,2013-09-25 08:01:00,
2013-09-25 03:06:00,56.7,55.6,29.75,NE,38,0.0,0.0,96,0.00,,,0.00,WeatherCatV1.21B27,2013-09-25 08:06:00,
2013-09-25 03:11:00,56.7,55.6,29.75,NE,38,0.0,0.0,96,0.00,,,0.00,WeatherCatV1.21B27,2013-09-25 08:11:00,
2013-09-25 03:16:00,56.7,55.6,29.75,NE,38,0.0,0.0,96,0.00,,,0.00,WeatherCatV1.21B27,2013-09-25 08:16:00,
2013-09-25 03:21:00,56.7,55.6,29.75,NE,38,0.0,0.0,96,0.00,,,0.00,WeatherCatV1.21B27,2013-09-25 08:21:00,
2013-09-25 03:26:00,56.7,55.6,29.75,NE,38,0.0,0.0,96,0.00,,,0.00,WeatherCatV1.21B27,2013-09-25 08:26:00,
2013-09-25 03:31:00,56.6,55.5,29.75,NE,38,0.0,0.0,96,0.00,,,0.00,WeatherCatV1.21B27,2013-09-25 08:31:00,
2013-09-25 03:36:00,56.5,55.4,29.75,NE,38,0.0,0.0,96,0.00,,,0.00,WeatherCatV1.21B27,2013-09-25 08:36:00,
2013-09-25 03:41:00,56.3,55.2,29.75,NE,38,0.0,0.0,96,0.00,,,0.00,WeatherCatV1.21B27,2013-09-25 08:41:00,
2013-09-25 03:46:00,56.2,55.1,29.75,NE,38,0.0,0.0,96,0.00,,,0.00,WeatherCatV1.21B27,2013-09-25 08:46:00,
2013-09-25 03:51:00,56.0,54.9,29.75,NE,38,0.0,0.0,96,0.00,,,0.00,WeatherCatV1.21B27,2013-09-25 08:51:00,
2013-09-25 03:57:00,56.0,54.9,29.75,NE,38,0.0,0.0,96,0.00,,,0.00,WeatherCatV1.21B27,2013-09-25 08:57:00,
2013-09-25 04:02:00,55.9,54.8,29.75,NE,38,0.0,0.0,96,0.00,,,0.00,WeatherCatV1.21B27,2013-09-25 09:02:00,
2013-09-25 04:07:00,55.9,54.8,29.75,NE,38,0.0,0.0,96,0.00,,,0.00,WeatherCatV1.21B27,2013-09-25 09:07:00,
2013-09-25 04:12:00,56.0,55.2,29.75,NE,38,0.0,0.0,97,0.00,,,0.00,WeatherCatV1.21B27,2013-09-25 09:12:00,
2013-09-25 04:17:00,56.2,55.4,29.75,NE,38,0.0,0.0,97,0.00,,,0.00,WeatherCatV1.21B27,2013-09-25 09:17:00,
2013-09-25 04:22:00,56.2,55.4,29.75,NE,38,0.0,0.0,97,0.00,,,0.00,WeatherCatV1.21B27,2013-09-25 09:22:00,
2013-09-25 04:27:00,56.2,55.4,29.75,NE,38,0.0,0.0,97,0.00,,,0.00,WeatherCatV1.21B27,2013-09-25 09:27:00,
2013-09-25 04:32:00,56.0,55.2,29.75,NE,38,0.0,0.0,97,0.00,,,0.00,WeatherCatV1.21B27,2013-09-25 09:32:00,
2013-09-25 04:37:00,56.0,55.2,29.75,NE,38,0.0,0.0,97,0.00,,,0.00,WeatherCatV1.21B27,2013-09-25 09:37:00,
2013-09-25 04:42:00,56.2,55.4,29.75,NE,38,0.0,0.0,97,0.00,,,0.00,WeatherCatV1.21B27,2013-09-25 09:42:00,
2013-09-25 04:47:00,56.0,55.2,29.75,NE,38,0.0,0.0,97,0.00,,,0.00,WeatherCatV1.21B27,2013-09-25 09:47:00,
2013-09-25 04:52:00,56.0,55.2,29.75,NE,38,0.0,0.0,97,0.00,,,0.00,WeatherCatV1.21B27,2013-09-25 09:52:00,
2013-09-25 04:57:00,55.9,55.1,29.75,NE,38,0.0,0.0,97,0.00,,,0.00,WeatherCatV1.21B27,2013-09-25 09:57:00,
2013-09-25 05:02:00,55.7,54.9,29.76,NE,38,0.0,0.0,97,0.00,,,0.00,WeatherCatV1.21B27,2013-09-25 10:02:00,
2013-09-25 05:07:00,55.6,54.8,29.76,NE,38,0.0,0.0,97,0.00,,,0.00,WeatherCatV1.21B27,2013-09-25 10:07:00,
2013-09-25 05:12:00,55.4,54.6,29.76,NE,38,0.0,0.0,97,0.00,,,0.00,WeatherCatV1.21B27,2013-09-25 10:12:00,
2013-09-25 05:17:00,55.3,54.5,29.76,NE,38,0.0,0.0,97,0.00,,,0.00,WeatherCatV1.21B27,2013-09-25 10:17:00,
2013-09-25 05:22:00,55.3,54.5,29.76,NE,38,0.0,0.0,97,0.00,,,0.00,WeatherCatV1.21B27,2013-09-25 10:22:00,
2013-09-25 05:27:00,55.3,54.5,29.76,NE,38,0.0,0.0,97,0.00,,,0.00,WeatherCatV1.21B27,2013-09-25 10:27:00,
2013-09-25 05:32:00,55.0,54.2,29.76,NE,38,0.0,0.0,97,0.00,,,0.00,WeatherCatV1.21B27,2013-09-25 10:32:00,
2013-09-25 05:37:00,54.8,54.0,29.76,NE,38,0.0,0.0,97,0.00,,,0.00,WeatherCatV1.21B27,2013-09-25 10:37:00,
2013-09-25 05:42:00,54.7,53.9,29.76,NE,38,0.0,0.0,97,0.00,,,0.00,WeatherCatV1.21B27,2013-09-25 10:42:00,
2013-09-25 05:47:00,54.7,53.9,29.76,NE,38,0.0,0.0,97,0.00,,,0.00,WeatherCatV1.21B27,2013-09-25 10:47:00,
2013-09-25 05:52:00,54.5,53.7,29.76,NE,38,0.0,0.0,97,0.00,,,0.00,WeatherCatV1.21B27,2013-09-25 10:52:00,
2013-09-25 05:57:00,54.5,53.7,29.76,NE,38,0.0,0.0,97,0.00,,,0.00,WeatherCatV1.21B27,2013-09-25 10:57:00,
2013-09-25 06:02:00,54.7,53.9,29.76,NE,38,0.0,0.0,97,0.00,,,0.00,WeatherCatV1.21B27,2013-09-25 11:02:00,
2013-09-25 06:07:00,54.7,53.9,29.76,NE,38,0.0,0.0,97,0.00,,,0.00,WeatherCatV1.21B27,2013-09-25 11:07:00,
2013-09-25 06:12:00,54.7,53.9,29.76,NE,38,0.0,0.0,97,0.00,,,0.00,WeatherCatV1.21B27,2013-09-25 11:12:00,
2013-09-25 06:17:00,54.8,54.0,29.76,NE,38,0.0,0.0,97,0.00,,,0.00,WeatherCatV1.21B27,2013-09-25 11:17:00,
2013-09-25 06:22:00,55.0,54.2,29.76,NE,38,0.0,0.0,97,0.00,,,0.00,WeatherCatV1.21B27,2013-09-25 11:22:00,
2013-09-25 06:27:00,55.0,54.2,29.76,NE,38,0.0,0.0,97,0.00,,,0.00,WeatherCatV1.21B27,2013-09-25 11:27:00,
2013-09-25 06:32:00,55.0,54.2,29.76,NE,38,0.0,0.0,97,0.00,,,0.00,WeatherCatV1.21B27,2013-09-25 11:32:00,
2013-09-25 06:37:00,55.1,54.3,29.76,NE,38,0.0,1.0,97,0.00,,,0.00,WeatherCatV1.21B27,2013-09-25 11:37:00,
2013-09-25 06:42:00,55.1,54.3,29.76,NE,38,0.0,1.0,97,0.00,,,0.00,WeatherCatV1.21B27,2013-09-25 11:42:00,
2013-09-25 06:47:00,55.4,54.8,29.76,NE,38,0.0,1.0,98,0.00,,,0.00,WeatherCatV1.21B27,2013-09-25 11:47:00,
2013-09-25 06:52:00,55.4,54.6,29.76,NE,38,0.0,0.0,97,0.00,,,0.00,WeatherCatV1.21B27,2013-09-25 11:52:00,
2013-09-25 06:57:00,55.4,54.6,29.76,NE,38,0.0,0.0,97,0.00,,,0.00,WeatherCatV1.21B27,2013-09-25 11:57:00,
2013-09-25 07:02:00,55.3,54.5,29.76,NE,38,0.0,0.0,97,0.00,,,0.00,WeatherCatV1.21B27,2013-09-25 12:02:00,
2013-09-25 07:07:00,55.1,54.3,29.76,NE,38,0.0,0.0,97,0.00,,,0.00,WeatherCatV1.21B27,2013-09-25 12:07:00,
2013-09-25 07:12:00,55.0,54.2,29.76,NE,38,0.0,0.0,97,0.00,,,0.00,WeatherCatV1.21B27,2013-09-25 12:12:00,
2013-09-25 07:17:00,55.0,54.2,29.77,NE,38,0.0,0.0,97,0.00,,,0.00,WeatherCatV1.21B27,2013-09-25 12:17:00,
2013-09-25 07:22:00,54.8,54.0,29.77,NE,38,0.0,0.0,97,0.00,,,0.00,WeatherCatV1.21B27,2013-09-25 12:22:00,
2013-09-25 07:27:00,54.7,53.9,29.77,NE,38,0.0,0.0,97,0.00,,,0.00,WeatherCatV1.21B27,2013-09-25 12:27:00,
2013-09-25 07:32:00,54.5,53.7,29.77,NE,38,0.0,0.0,97,0.00,,,0.00,WeatherCatV1.21B27,2013-09-25 12:32:00,
2013-09-25 07:37:00,54.5,53.7,29.77,NE,38,0.0,0.0,97,0.00,,,0.00,WeatherCatV1.21B27,2013-09-25 12:37:00,
2013-09-25 07:42:00,54.5,53.7,29.77,NE,38,0.0,0.0,97,0.00,,,0.00,WeatherCatV1.21B27,2013-09-25 12:42:00,
2013-09-25 07:47:00,54.4,53.6,29.78,NE,38,0.0,0.0,97,0.00,,,0.00,WeatherCatV1.21B27,2013-09-25 12:47:00,
2013-09-25 07:52:00,54.1,53.3,29.78,NE,38,0.0,0.0,97,0.00,,,0.00,WeatherCatV1.21B27,2013-09-25 12:52:00,
2013-09-25 07:57:00,54.1,53.3,29.78,NE,38,0.0,0.0,97,0.00,,,0.00,WeatherCatV1.21B27,2013-09-25 12:57:00,
2013-09-25 08:02:00,54.5,54.0,29.78,NE,38,0.0,0.0,98,0.00,,,0.00,WeatherCatV1.21B27,2013-09-25 13:02:00,
2013-09-25 08:07:00,54.7,54.1,29.78,NE,38,0.0,0.0,98,0.00,,,0.00,WeatherCatV1.21B27,2013-09-25 13:07:00,
2013-09-25 08:12:00,55.0,54.4,29.78,NE,38,0.0,0.0,98,0.00,,,0.00,WeatherCatV1.21B27,2013-09-25 13:12:00,
2013-09-25 08:17:00,55.3,54.7,29.78,NE,38,0.0,0.0,98,0.00,,,0.00,WeatherCatV1.21B27,2013-09-25 13:17:00,
2013-09-25 08:22:00,55.7,55.1,29.78,NE,38,0.0,0.0,98,0.00,,,0.00,WeatherCatV1.21B27,2013-09-25 13:22:00,
2013-09-25 08:27:00,55.9,55.3,29.78,NE,38,0.0,0.0,98,0.00,,,0.00,WeatherCatV1.21B27,2013-09-25 13:27:00,
2013-09-25 08:32:00,56.0,55.4,29.78,NE,38,0.0,0.0,98,0.00,,,0.00,WeatherCatV1.21B27,2013-09-25 13:32:00,
2013-09-25 08:37:00,56.2,55.6,29.78,NE,38,0.0,0.0,98,0.00,,,0.00,WeatherCatV1.21B27,2013-09-25 13:37:00,
2013-09-25 08:42:00,56.5,55.9,29.78,NE,38,0.0,0.0,98,0.00,,,0.00,WeatherCatV1.21B27,2013-09-25 13:42:00,
2013-09-25 08:47:00,56.7,56.1,29.77,NE,38,0.0,0.0,98,0.00,,,0.00,WeatherCatV1.21B27,2013-09-25 13:47:00,
2013-09-25 08:52:00,57.0,56.4,29.77,NE,38,0.0,0.0,98,0.00,,,0.00,WeatherCatV1.21B27,2013-09-25 13:52:00,
2013-09-25 08:57:00,57.3,56.7,29.77,NE,38,0.0,0.0,98,0.00,,,0.00,WeatherCatV1.21B27,2013-09-25 13:57:00,
2013-09-25 09:02:00,57.5,56.9,29.78,NE,38,0.0,0.0,98,0.00,,,0.00,WeatherCatV1.21B27,2013-09-25 14:02:00,
2013-09-25 09:07:00,57.6,57.0,29.78,NE,38,0.0,2.0,98,0.00,,,0.00,WeatherCatV1.21B27,2013-09-25 14:07:00,
2013-09-25 09:12:00,57.8,57.0,29.78,NE,38,0.0,0.0,97,0.00,,,0.00,WeatherCatV1.21B27,2013-09-25 14:12:00,
2013-09-25 09:17:00,58.1,57.5,29.78,NE,38,0.0,0.0,98,0.00,,,0.00,WeatherCatV1.21B27,2013-09-25 14:17:00,
2013-09-25 09:22:00,58.6,58.0,29.78,NE,38,0.0,0.0,98,0.00,,,0.00,WeatherCatV1.21B27,2013-09-25 14:22:00,
2013-09-25 09:27:00,58.9,58.0,29.78,NE,38,0.0,0.0,97,0.00,,,0.00,WeatherCatV1.21B27,2013-09-25 14:27:00,
2013-09-25 09:32:00,59.2,58.3,29.77,NE,38,0.0,1.0,97,0.00,,,0.00,WeatherCatV1.21B27,2013-09-25 14:32:00,
2013-09-25 09:37:00,59.5,58.7,29.77,NE,38,0.0,1.0,97,0.00,,,0.00,WeatherCatV1.21B27,2013-09-25 14:37:00,
2013-09-25 09:42:00,59.6,58.8,29.77,NE,38,3.0,3.0,97,0.00,,,0.00,WeatherCatV1.21B27,2013-09-25 14:42:00,
2013-09-25 09:47:00,59.6,58.5,29.78,NE,38,0.0,0.0,96,0.00,,,0.00,WeatherCatV1.21B27,2013-09-25 14:47:00,
2013-09-25 09:52:00,59.9,58.8,29.78,NE,38,0.0,0.0,96,0.00,,,0.00,WeatherCatV1.21B27,2013-09-25 14:52:00,
2013-09-25 09:57:00,60.2,58.8,29.78,NE,38,0.0,0.0,95,0.00,,,0.00,WeatherCatV1.21B27,2013-09-25 14:57:00,
2013-09-25 10:02:00,60.7,59.3,29.78,NE,38,0.0,0.0,95,0.00,,,0.00,WeatherCatV1.21B27,2013-09-25 15:02:00,
2013-09-25 10:07:00,61.0,59.3,29.78,NE,38,0.0,5.0,94,0.00,,,0.00,WeatherCatV1.21B27,2013-09-25 15:07:00,
2013-09-25 10:12:00,61.3,59.6,29.78,NE,40,0.0,0.0,94,0.00,,,0.00,WeatherCatV1.21B27,2013-09-25 15:12:00,
2013-09-25 10:17:00,61.8,59.8,29.78,NE,39,0.0,1.0,93,0.00,,,0.00,WeatherCatV1.21B27,2013-09-25 15:17:00,
2013-09-25 10:22:00,62.3,59.9,29.78,NE,39,0.0,0.0,92,0.00,,,0.00,WeatherCatV1.21B27,2013-09-25 15:22:00,
2013-09-25 10:27:00,62.6,59.9,29.78,NE,55,0.0,0.0,91,0.00,,,0.00,WeatherCatV1.21B27,2013-09-25 15:27:00,
2013-09-25 10:32:00,63.2,59.9,29.77,NE,55,0.0,0.0,89,0.00,,,0.00,WeatherCatV1.21B27,2013-09-25 15:32:00,
2013-09-25 10:37:00,63.5,59.6,29.77,South,190,0.0,5.0,87,0.00,,,0.00,WeatherCatV1.21B27,2013-09-25 15:37:00,
2013-09-25 10:42:00,63.9,59.6,29.77,South,190,0.0,0.0,86,0.00,,,0.00,WeatherCatV1.21B27,2013-09-25 15:42:00,
2013-09-25 10:47:00,64.3,59.4,29.78,South,190,0.0,0.0,84,0.00,,,0.00,WeatherCatV1.21B27,2013-09-25 15:47:00,
2013-09-25 10:52:00,64.7,59.4,29.78,South,190,1.0,1.0,83,0.00,,,0.00,WeatherCatV1.21B27,2013-09-25 15:52:00,
2013-09-25 10:57:00,65.3,59.3,29.78,South,190,0.0,0.0,81,0.00,,,0.00,WeatherCatV1.21B27,2013-09-25 15:57:00,
2013-09-25 11:02:00,65.6,58.9,29.77,South,190,0.0,0.0,79,0.00,,,0.00,WeatherCatV1.21B27,2013-09-25 16:02:00,
2013-09-25 11:07:00,66.1,59.0,29.77,South,173,6.0,6.0,78,0.00,,,0.00,WeatherCatV1.21B27,2013-09-25 16:07:00,
2013-09-25 11:12:00,66.6,59.2,29.77,South,173,0.0,0.0,77,0.00,,,0.00,WeatherCatV1.21B27,2013-09-25 16:12:00,
2013-09-25 11:17:00,67.1,59.3,29.77,NNE,28,3.0,6.0,76,0.00,,,0.00,WeatherCatV1.21B27,2013-09-25 16:17:00,
2013-09-25 11:22:00,67.4,59.6,29.77,SSE,152,5.0,5.0,76,0.00,,,0.00,WeatherCatV1.21B27,2013-09-25 16:22:00,
2013-09-25 11:27:00,67.9,60.0,29.77,SSE,153,0.0,4.0,76,0.00,,,0.00,WeatherCatV1.21B27,2013-09-25 16:27:00,
2013-09-25 11:32:00,68.3,59.3,29.76,SSE,153,0.0,0.0,73,0.00,,,0.00,WeatherCatV1.21B27,2013-09-25 16:32:00,
2013-09-25 11:37:00,68.6,58.8,29.76,NE,41,0.0,3.0,71,0.00,,,0.00,WeatherCatV1.21B27,2013-09-25 16:37:00,
2013-09-25 11:42:00,69.1,59.3,29.76,South,177,0.0,7.0,71,0.00,,,0.00,WeatherCatV1.21B27,2013-09-25 16:42:00,
2013-09-25 11:47:00,69.6,59.8,29.75,South,177,0.0,0.0,71,0.00,,,0.00,WeatherCatV1.21B27,2013-09-25 16:47:00,
2013-09-25 11:52:00,70.1,59.0,29.75,SE,141,0.0,0.0,68,0.00,,,0.00,WeatherCatV1.21B27,2013-09-25 16:52:00,
2013-09-25 11:57:00,70.4,58.9,29.75,SE,141,0.0,1.0,67,0.00,,,0.00,WeatherCatV1.21B27,2013-09-25 16:57:00,
2013-09-25 12:02:00,70.9,59.0,29.75,South,170,0.0,7.0,66,0.00,,,0.00,WeatherCatV1.21B27,2013-09-25 17:02:00,
2013-09-25 12:07:00,71.3,58.5,29.75,South,171,0.0,1.0,64,0.00,,,0.00,WeatherCatV1.21B27,2013-09-25 17:07:00,
2013-09-25 12:12:00,71.6,57.9,29.75,East,88,0.0,0.0,62,0.00,,,0.00,WeatherCatV1.21B27,2013-09-25 17:12:00,
2013-09-25 12:17:00,72.0,58.2,29.75,East,88,0.0,1.0,62,0.00,,,0.00,WeatherCatV1.21B27,2013-09-25 17:17:00,
2013-09-25 12:22:00,72.1,57.4,29.75,NE,56,0.0,1.0,60,0.00,,,0.00,WeatherCatV1.21B27,2013-09-25 17:22:00,
2013-09-25 12:27:00,72.3,57.6,29.75,East,100,0.0,4.0,60,0.00,,,0.00,WeatherCatV1.21B27,2013-09-25 17:27:00,
2013-09-25 12:32:00,72.8,57.6,29.74,East,101,0.0,0.0,59,0.00,,,0.00,WeatherCatV1.21B27,2013-09-25 17:32:00,
2013-09-25 12:37:00,73.0,57.3,29.74,East,101,0.0,1.0,58,0.00,,,0.00,WeatherCatV1.21B27,2013-09-25 17:37:00,
2013-09-25 12:42:00,73.3,58.1,29.74,SSE,152,0.0,3.0,59,0.00,,,0.00,WeatherCatV1.21B27,2013-09-25 17:42:00,
2013-09-25 12:47:00,73.7,57.0,29.73,SSW,194,0.0,2.0,56,0.00,,,0.00,WeatherCatV1.21B27,2013-09-25 17:47:00,
2013-09-25 12:52:00,73.9,57.2,29.73,SSW,194,0.0,2.0,56,0.00,,,0.00,WeatherCatV1.21B27,2013-09-25 17:52:00,
2013-09-25 12:57:00,74.0,56.8,29.73,SSW,194,0.0,1.0,55,0.00,,,0.00,WeatherCatV1.21B27,2013-09-25 17:57:00,
2013-09-25 13:02:00,74.4,57.2,29.72,ENE,71,0.0,7.0,55,0.00,,,0.00,WeatherCatV1.21B27,2013-09-25 18:02:00,
2013-09-25 13:07:00,74.7,57.4,29.72,SSW,192,7.0,7.0,55,0.00,,,0.00,WeatherCatV1.21B27,2013-09-25 18:07:00,
2013-09-25 13:12:00,75.3,56.4,29.72,ENE,70,0.0,0.0,52,0.00,,,0.00,WeatherCatV1.21B27,2013-09-25 18:12:00,
2013-09-25 13:17:00,75.8,55.8,29.71,East,84,0.0,0.0,50,0.00,,,0.00,WeatherCatV1.21B27,2013-09-25 18:17:00,
2013-09-25 13:22:00,76.1,56.1,29.71,SE,137,1.0,3.0,50,0.00,,,0.00,WeatherCatV1.21B27,2013-09-25 18:22:00,
2013-09-25 13:27:00,76.7,56.6,29.71,SE,139,0.0,0.0,50,0.00,,,0.00,WeatherCatV1.21B27,2013-09-25 18:27:00,
2013-09-25 13:32:00,77.2,57.1,29.70,SSE,165,0.0,0.0,50,0.00,,,0.00,WeatherCatV1.21B27,2013-09-25 18:32:00,
2013-09-25 13:37:00,77.4,55.6,29.70,SSE,165,0.0,0.0,47,0.00,,,0.00,WeatherCatV1.21B27,2013-09-25 18:37:00,
2013-09-25 13:42:00,77.4,56.7,29.70,SSE,165,1.0,4.0,49,0.00,,,0.00,WeatherCatV1.21B27,2013-09-25 18:42:00,
2013-09-25 13:47:00,77.7,55.8,29.69,South,188,1.0,15.0,47,0.00,,,0.00,WeatherCatV1.21B27,2013-09-25 18:47:00,
2013-09-25 13:52:00,77.9,56.0,29.69,South,186,5.0,10.0,47,0.00,,,0.00,WeatherCatV1.21B27,2013-09-25 18:52:00,
2013-09-25 13:57:00,78.1,56.2,29.69,SSW,211,0.0,9.0,47,0.00,,,0.00,WeatherCatV1.21B27,2013-09-25 18:57:00,
2013-09-25 14:02:00,78.5,56.6,29.68,South,186,5.0,5.0,47,0.00,,,0.00,WeatherCatV1.21B27,2013-09-25 19:02:00,
2013-09-25 14:07:00,78.6,55.5,29.68,South,183,0.0,3.0,45,0.00,,,0.00,WeatherCatV1.21B27,2013-09-25 19:07:00,
2013-09-25 14:12:00,78.6,55.5,29.68,South,186,3.0,3.0,45,0.00,,,0.00,WeatherCatV1.21B27,2013-09-25 19:12:00,
2013-09-25 14:17:00,78.6,55.5,29.67,South,184,3.0,9.0,45,0.00,,,0.00,WeatherCatV1.21B27,2013-09-25 19:17:00,
2013-09-25 14:22:00,78.8,55.0,29.67,South,184,0.0,1.0,44,0.00,,,0.00,WeatherCatV1.21B27,2013-09-25 19:22:00,
2013-09-25 14:27:00,78.8,54.4,29.67,South,184,0.0,1.0,43,0.00,,,0.00,WeatherCatV1.21B27,2013-09-25 19:27:00,
2013-09-25 14:32:00,79.0,56.4,29.66,South,184,0.0,0.0,46,0.00,,,0.00,WeatherCatV1.21B27,2013-09-25 19:32:00,
2013-09-25 14:37:00,78.8,55.0,29.66,South,175,0.0,2.0,44,0.00,,,0.00,WeatherCatV1.21B27,2013-09-25 19:37:00,
2013-09-25 14:42:00,79.0,54.6,29.66,South,182,0.0,2.0,43,0.00,,,0.00,WeatherCatV1.21B27,2013-09-25 19:42:00,
2013-09-25 14:47:00,79.4,55.6,29.66,SSW,206,0.0,9.0,44,0.00,,,0.00,WeatherCatV1.21B27,2013-09-25 19:47:00,
2013-09-25 14:52:00,79.8,55.9,29.66,SSW,206,0.0,1.0,44,0.00,,,0.00,WeatherCatV1.21B27,2013-09-25 19:52:00,
2013-09-25 14:57:00,79.9,55.4,29.66,SSW,205,0.0,3.0,43,0.00,,,0.00,WeatherCatV1.21B27,2013-09-25 19:57:00,
2013-09-25 15:02:00,80.1,55.6,29.65,SSW,205,0.0,2.0,43,0.00,,,0.00,WeatherCatV1.21B27,2013-09-25 20:02:00,
2013-09-25 15:07:00,80.3,56.4,29.65,South,182,0.0,6.0,44,0.00,,,0.00,WeatherCatV1.21B27,2013-09-25 20:07:00,
2013-09-25 15:12:00,80.7,55.5,29.65,South,186,0.0,0.0,42,0.00,,,0.00,WeatherCatV1.21B27,2013-09-25 20:12:00,
2013-09-25 15:17:00,80.9,55.6,29.65,South,186,0.0,1.0,42,0.00,,,0.00,WeatherCatV1.21B27,2013-09-25 20:17:00,
2013-09-25 15:22:00,80.7,56.1,29.65,South,175,0.0,5.0,43,0.00,,,0.00,WeatherCatV1.21B27,2013-09-25 20:22:00,
2013-09-25 15:27:00,80.3,56.4,29.65,South,177,0.0,5.0,44,0.00,,,0.00,WeatherCatV1.21B27,2013-09-25 20:27:00,
2013-09-25 15:32:00,80.7,56.7,29.65,South,171,4.0,10.0,44,0.00,,,0.00,WeatherCatV1.21B27,2013-09-25 20:32:00,
2013-09-25 15:37:00,80.9,55.6,29.65,SW,226,0.0,7.0,42,0.00,,,0.00,WeatherCatV1.21B27,2013-09-25 20:37:00,
2013-09-25 15:42:00,81.2,54.5,29.65,South,188,1.0,13.0,40,0.00,,,0.00,WeatherCatV1.21B27,2013-09-25 20:42:00,
2013-09-25 15:47:00,81.2,55.2,29.65,South,177,0.0,10.0,41,0.00,,,0.00,WeatherCatV1.21B27,2013-09-25 20:47:00,
2013-09-25 15:52:00,81.2,55.2,29.65,South,182,3.0,9.0,41,0.00,,,0.00,WeatherCatV1.21B27,2013-09-25 20:52:00,
2013-09-25 15:57:00,81.1,55.8,29.65,South,182,0.0,1.0,42,0.00,,,0.00,WeatherCatV1.21B27,2013-09-25 20:57:00,
2013-09-25 16:02:00,80.9,55.6,29.64,South,180,1.0,4.0,42,0.00,,,0.00,WeatherCatV1.21B27,2013-09-25 21:02:00,
2013-09-25 16:07:00,81.1,55.8,29.64,South,173,1.0,6.0,42,0.00,,,0.00,WeatherCatV1.21B27,2013-09-25 21:07:00,
2013-09-25 16:12:00,81.2,55.2,29.64,South,183,0.0,9.0,41,0.00,,,0.00,WeatherCatV1.21B27,2013-09-25 21:12:00,
2013-09-25 16:17:00,81.2,55.2,29.64,South,185,0.0,3.0,41,0.00,,,0.00,WeatherCatV1.21B27,2013-09-25 21:17:00,
2013-09-25 16:22:00,81.2,55.9,29.64,South,182,0.0,4.0,42,0.00,,,0.00,WeatherCatV1.21B27,2013-09-25 21:22:00,
2013-09-25 16:27:00,81.2,55.9,29.64,SSW,211,0.0,10.0,42,0.00,,,0.00,WeatherCatV1.21B27,2013-09-25 21:27:00,
2013-09-25 16:32:00,81.2,55.2,29.63,SSW,193,0.0,2.0,41,0.00,,,0.00,WeatherCatV1.21B27,2013-09-25 21:32:00,
2013-09-25 16:37:00,81.1,56.5,29.63,South,188,6.0,6.0,43,0.00,,,0.00,WeatherCatV1.21B27,2013-09-25 21:37:00,
2013-09-25 16:42:00,81.2,56.5,29.63,SSW,192,0.0,0.0,43,0.00,,,0.00,WeatherCatV1.21B27,2013-09-25 21:42:00,
2013-09-25 16:47:00,81.2,55.9,29.63,South,186,0.0,3.0,42,0.00,,,0.00,WeatherCatV1.21B27,2013-09-25 21:47:00,
2013-09-25 16:52:00,81.1,55.1,29.63,South,173,0.0,3.0,41,0.00,,,0.00,WeatherCatV1.21B27,2013-09-25 21:52:00,
2013-09-25 16:57:00,81.1,55.8,29.63,South,175,0.0,3.0,42,0.00,,,0.00,WeatherCatV1.21B27,2013-09-25 21:57:00,
2013-09-25 17:02:00,80.9,55.0,29.63,SSW,194,1.0,6.0,41,0.00,,,0.00,WeatherCatV1.21B27,2013-09-25 22:02:00,
2013-09-25 17:07:00,80.5,55.3,29.63,South,191,3.0,10.0,42,0.00,,,0.00,WeatherCatV1.21B27,2013-09-25 22:07:00,
2013-09-25 17:12:00,80.5,55.9,29.63,South,186,0.0,6.0,43,0.00,,,0.00,WeatherCatV1.21B27,2013-09-25 22:12:00,
2013-09-25 17:17:00,80.5,55.3,29.63,South,182,3.0,10.0,42,0.00,,,0.00,WeatherCatV1.21B27,2013-09-25 22:17:00,
2013-09-25 17:22:00,80.3,55.7,29.63,South,183,0.0,3.0,43,0.00,,,0.00,WeatherCatV1.21B27,2013-09-25 22:22:00,
2013-09-25 17:27:00,80.1,55.6,29.63,SW,218,0.0,7.0,43,0.00,,,0.00,WeatherCatV1.21B27,2013-09-25 22:27:00,
2013-09-25 17:32:00,79.9,55.4,29.62,South,182,0.0,7.0,43,0.00,,,0.00,WeatherCatV1.21B27,2013-09-25 22:32:00,
2013-09-25 17:37:00,79.8,55.9,29.62,South,173,0.0,10.0,44,0.00,,,0.00,WeatherCatV1.21B27,2013-09-25 22:37:00,
2013-09-25 17:42:00,79.4,54.9,29.62,South,182,4.0,5.0,43,0.00,,,0.00,WeatherCatV1.21B27,2013-09-25 22:42:00,
2013-09-25 17:47:00,79.0,55.2,29.62,South,191,2.0,6.0,44,0.00,,,0.00,WeatherCatV1.21B27,2013-09-25 22:47:00,
2013-09-25 17:52:00,78.5,55.4,29.62,South,173,0.0,6.0,45,0.00,,,0.00,WeatherCatV1.21B27,2013-09-25 22:52:00,
2013-09-25 17:57:00,78.1,55.6,29.62,South,183,8.0,14.0,46,0.00,,,0.00,WeatherCatV1.21B27,2013-09-25 22:57:00,
2013-09-25 18:02:00,77.7,55.2,29.62,South,184,0.0,3.0,46,0.00,,,0.00,WeatherCatV1.21B27,2013-09-25 23:02:00,
2013-09-25 18:07:00,77.6,55.8,29.62,South,182,0.0,6.0,47,0.00,,,0.00,WeatherCatV1.21B27,2013-09-25 23:07:00,
2013-09-25 18:12:00,77.2,55.4,29.62,South,182,0.0,6.0,47,0.00,,,0.00,WeatherCatV1.21B27,2013-09-25 23:12:00,
2013-09-25 18:17:00,77.0,55.8,29.61,South,185,0.0,1.0,48,0.00,,,0.00,WeatherCatV1.21B27,2013-09-25 23:17:00,
2013-09-25 18:22:00,76.8,56.2,29.61,South,185,1.0,1.0,49,0.00,,,0.00,WeatherCatV1.21B27,2013-09-25 23:22:00,
2013-09-25 18:27:00,76.7,56.1,29.61,South,185,0.0,2.0,49,0.00,,,0.00,WeatherCatV1.21B27,2013-09-25 23:27:00,
2013-09-25 18:32:00,76.3,56.3,29.61,South,185,0.0,3.0,50,0.00,,,0.00,WeatherCatV1.21B27,2013-09-25 23:32:00,
2013-09-25 18:37:00,76.1,56.1,29.61,South,185,0.0,1.0,50,0.00,,,0.00,WeatherCatV1.21B27,2013-09-25 23:37:00,
2013-09-25 18:42:00,76.0,56.5,29.61,South,184,0.0,0.0,51,0.00,,,0.00,WeatherCatV1.21B27,2013-09-25 23:42:00,
2013-09-25 18:47:00,75.6,56.7,29.61,South,185,0.0,0.0,52,0.00,,,0.00,WeatherCatV1.21B27,2013-09-25 23:47:00,
2013-09-25 18:52:00,75.4,56.5,29.61,South,185,0.0,1.0,52,0.00,,,0.00,WeatherCatV1.21B27,2013-09-25 23:52:00,
2013-09-25 18:57:00,75.1,56.8,29.61,South,185,0.0,0.0,53,0.00,,,0.00,WeatherCatV1.21B27,2013-09-25 23:57:00,
2013-09-25 19:02:00,74.7,56.9,29.60,South,185,0.0,0.0,54,0.00,,,0.00,WeatherCatV1.21B27,2013-09-26 00:02:00,
2013-09-25 19:07:00,74.4,57.2,29.60,South,185,0.0,1.0,55,0.00,,,0.00,WeatherCatV1.21B27,2013-09-26 00:07:00,
2013-09-25 19:12:00,74.0,57.3,29.60,South,185,0.0,1.0,56,0.00,,,0.00,WeatherCatV1.21B27,2013-09-26 00:12:00,
2013-09-25 19:17:00,73.7,57.0,29.60,South,185,0.0,0.0,56,0.00,,,0.00,WeatherCatV1.21B27,2013-09-26 00:17:00,
2013-09-25 19:22:00,73.3,57.1,29.60,South,185,0.0,0.0,57,0.00,,,0.00,WeatherCatV1.21B27,2013-09-26 00:22:00,
2013-09-25 19:27:00,73.2,57.5,29.60,South,185,0.0,0.0,58,0.00,,,0.00,WeatherCatV1.21B27,2013-09-26 00:27:00,
2013-09-25 19:32:00,72.8,57.6,29.60,South,185,0.0,0.0,59,0.00,,,0.00,WeatherCatV1.21B27,2013-09-26 00:32:00,
2013-09-25 19:37:00,72.5,57.8,29.60,South,185,0.0,0.0,60,0.00,,,0.00,WeatherCatV1.21B27,2013-09-26 00:37:00,
2013-09-25 19:42:00,72.0,57.8,29.60,South,185,0.0,0.0,61,0.00,,,0.00,WeatherCatV1.21B27,2013-09-26 00:42:00,
2013-09-25 19:47:00,71.6,57.4,29.60,South,185,0.0,0.0,61,0.00,,,0.00,WeatherCatV1.21B27,2013-09-26 00:47:00,
2013-09-25 19:52:00,71.3,57.6,29.60,South,185,0.0,0.0,62,0.00,,,0.00,WeatherCatV1.21B27,2013-09-26 00:52:00,
2013-09-25 19:57:00,70.9,57.7,29.60,South,185,0.0,0.0,63,0.00,,,0.00,WeatherCatV1.21B27,2013-09-26 00:57:00,
2013-09-25 20:02:00,70.6,57.8,29.61,South,185,0.0,1.0,64,0.00,,,0.00,WeatherCatV1.21B27,2013-09-26 01:02:00,
2013-09-25 20:07:00,70.3,58.0,29.61,South,185,0.0,0.0,65,0.00,,,0.00,WeatherCatV1.21B27,2013-09-26 01:07:00,
2013-09-25 20:12:00,70.1,58.2,29.61,South,185,0.0,0.0,66,0.00,,,0.00,WeatherCatV1.21B27,2013-09-26 01:12:00,
2013-09-25 20:17:00,69.9,58.0,29.61,South,185,0.0,0.0,66,0.00,,,0.00,WeatherCatV1.21B27,2013-09-26 01:17:00,
2013-09-25 20:22:00,69.6,58.2,29.61,South,185,0.0,0.0,67,0.00,,,0.00,WeatherCatV1.21B27,2013-09-26 01:22:00,
2013-09-25 20:27:00,69.4,58.4,29.61,South,185,0.0,0.0,68,0.00,,,0.00,WeatherCatV1.21B27,2013-09-26 01:27:00,
2013-09-25 20:32:00,69.1,58.5,29.61,South,185,0.0,0.0,69,0.00,,,0.00,WeatherCatV1.21B27,2013-09-26 01:32:00,
2013-09-25 20:37:00,68.8,58.6,29.61,South,185,0.0,0.0,70,0.00,,,0.00,WeatherCatV1.21B27,2013-09-26 01:37:00,
2013-09-25 20:42:00,68.4,58.6,29.61,South,185,0.0,0.0,71,0.00,,,0.00,WeatherCatV1.21B27,2013-09-26 01:42:00,
2013-09-25 20:47:00,68.1,58.7,29.61,South,185,0.0,0.0,72,0.00,,,0.00,WeatherCatV1.21B27,2013-09-26 01:47:00,
2013-09-25 20:52:00,67.9,58.9,29.61,South,185,0.0,0.0,73,0.00,,,0.00,WeatherCatV1.21B27,2013-09-26 01:52:00,
2013-09-25 20:57:00,67.8,58.8,29.61,South,185,0.0,0.0,73,0.00,,,0.00,WeatherCatV1.21B27,2013-09-26 01:57:00,
2013-09-25 21:02:00,67.6,59.0,29.62,South,185,0.0,0.0,74,0.00,,,0.00,WeatherCatV1.21B27,2013-09-26 02:02:00,
2013-09-25 21:07:00,67.3,58.7,29.62,South,185,0.0,0.0,74,0.00,,,0.00,WeatherCatV1.21B27,2013-09-26 02:07:00,
2013-09-25 21:12:00,67.1,58.9,29.62,South,185,0.0,0.0,75,0.00,,,0.00,WeatherCatV1.21B27,2013-09-26 02:12:00,
2013-09-25 21:17:00,66.9,59.1,29.62,South,185,0.0,0.0,76,0.00,,,0.00,WeatherCatV1.21B27,2013-09-26 02:17:00,
2013-09-25 21:22:00,66.8,59.0,29.62,South,185,0.0,0.0,76,0.00,,,0.00,WeatherCatV1.21B27,2013-09-26 02:22:00,
2013-09-25 21:27:00,66.6,59.2,29.62,South,185,0.0,0.0,77,0.00,,,0.00,WeatherCatV1.21B27,2013-09-26 02:27:00,
2013-09-25 21:32:00,66.4,59.3,29.63,South,185,0.0,0.0,78,0.00,,,0.00,WeatherCatV1.21B27,2013-09-26 02:32:00,
2013-09-25 21:37:00,66.1,59.0,29.63,South,185,0.0,0.0,78,0.00,,,0.00,WeatherCatV1.21B27,2013-09-26 02:37:00,
2013-09-25 21:42:00,66.0,59.3,29.63,South,185,0.0,0.0,79,0.00,,,0.00,WeatherCatV1.21B27,2013-09-26 02:42:00,
2013-09-25 21:47:00,65.8,59.1,29.64,South,185,0.0,0.0,79,0.00,,,0.00,WeatherCatV1.21B27,2013-09-26 02:47:00,
2013-09-25 21:52:00,65.6,59.3,29.64,South,185,0.0,0.0,80,0.00,,,0.00,WeatherCatV1.21B27,2013-09-26 02:52:00,
2013-09-25 21:57:00,65.3,59.3,29.64,South,185,0.0,0.0,81,0.00,,,0.00,WeatherCatV1.21B27,2013-09-26 02:57:00,
2013-09-25 22:02:00,65.2,59.2,29.64,South,185,0.0,0.0,81,0.00,,,0.00,WeatherCatV1.21B27,2013-09-26 03:02:00,
2013-09-25 22:07:00,65.0,59.4,29.64,South,185,0.0,0.0,82,0.00,,,0.00,WeatherCatV1.21B27,2013-09-26 03:07:00,
2013-09-25 22:12:00,64.8,59.2,29.64,South,185,0.0,0.0,82,0.00,,,0.00,WeatherCatV1.21B27,2013-09-26 03:12:00,
2013-09-25 22:17:00,64.7,59.1,29.64,South,185,0.0,0.0,82,0.00,,,0.00,WeatherCatV1.21B27,2013-09-26 03:17:00,
2013-09-25 22:22:00,64.7,59.1,29.64,South,185,0.0,0.0,82,0.00,,,0.00,WeatherCatV1.21B27,2013-09-26 03:22:00,
2013-09-25 22:27:00,64.7,59.1,29.64,South,185,0.0,1.0,82,0.00,,,0.00,WeatherCatV1.21B27,2013-09-26 03:27:00,
2013-09-25 22:32:00,64.7,59.1,29.64,South,185,0.0,0.0,82,0.00,,,0.00,WeatherCatV1.21B27,2013-09-26 03:32:00,
2013-09-25 22:37:00,64.7,59.1,29.64,South,185,1.0,1.0,82,0.00,,,0.00,WeatherCatV1.21B27,2013-09-26 03:37:00,
2013-09-25 22:42:00,64.7,59.1,29.64,South,185,0.0,0.0,82,0.00,,,0.00,WeatherCatV1.21B27,2013-09-26 03:42:00,
2013-09-25 22:47:00,64.7,59.4,29.64,South,185,0.0,0.0,83,0.00,,,0.00,WeatherCatV1.21B27,2013-09-26 03:47:00,
2013-09-25 22:52:00,64.7,59.4,29.64,South,185,0.0,0.0,83,0.00,,,0.00,WeatherCatV1.21B27,2013-09-26 03:52:00,
2013-09-25 22:57:00,64.8,59.2,29.64,South,185,0.0,1.0,82,0.00,,,0.00,WeatherCatV1.21B27,2013-09-26 03:57:00,
2013-09-25 23:01:00,64.8,59.2,29.64,South,185,0.0,0.0,82,0.00,,,0.00,WeatherCatV1.21B27,2013-09-26 04:01:00,
2013-09-25 23:06:00,64.8,59.2,29.64,South,185,0.0,0.0,82,0.00,,,0.00,WeatherCatV1.21B27,2013-09-26 04:06:00,
2013-09-25 23:11:00,64.8,59.2,29.64,South,185,0.0,0.0,82,0.00,,,0.00,WeatherCatV1.21B27,2013-09-26 04:11:00,
2013-09-25 23:16:00,64.8,59.5,29.63,South,185,0.0,0.0,83,0.00,,,0.00,WeatherCatV1.21B27,2013-09-26 04:16:00,
2013-09-25 23:21:00,64.8,59.5,29.63,South,185,0.0,1.0,83,0.00,,,0.00,WeatherCatV1.21B27,2013-09-26 04:21:00,
2013-09-25 23:26:00,64.7,59.4,29.63,South,185,0.0,0.0,83,0.00,,,0.00,WeatherCatV1.21B27,2013-09-26 04:26:00,
2013-09-25 23:31:00,64.7,59.4,29.63,South,185,0.0,0.0,83,0.00,,,0.00,WeatherCatV1.21B27,2013-09-26 04:31:00,
2013-09-25 23:36:00,64.7,59.4,29.63,South,185,0.0,1.0,83,0.00,,,0.00,WeatherCatV1.21B27,2013-09-26 04:36:00,
2013-09-25 23:41:00,64.5,59.2,29.63,South,185,0.0,0.0,83,0.00,,,0.00,WeatherCatV1.21B27,2013-09-26 04:41:00,
2013-09-25 23:46:00,64.5,59.2,29.64,South,185,0.0,0.0,83,0.00,,,0.00,WeatherCatV1.21B27,2013-09-26 04:46:00,
2013-09-25 23:51:00,64.5,59.2,29.64,South,185,0.0,0.0,83,0.00,,,0.00,WeatherCatV1.21B27,2013-09-26 04:51:00,
2013-09-25 23:56:00,64.5,59.2,29.64,South,185,0.0,0.0,83,0.00,,,0.00,WeatherCatV1.21B27,2013-09-26 04:56:00,